When you browse on this site, cookies collect data to enhance your experience and personalize the content and advertising you see.
Visit our Privacy Policy to learn more. By continuing to use the site, you agree to this use of cookies and data.
  • In Lithuania
  • List of Countries
  • For 7 days
  • Water Temperature
  • Weather Map
  • Weather Widgets
  • user-avatar
    Login

    Hourly Weather Ongandyera

    Today, 7 June, Sunday

    Time Temperature Precipitation Wind Pressure Humidity
    00:00 +19°C° 0 mm 4 mps 671 mmHg 30%
    01:00 +18°C° 0 mm 4 mps 671 mmHg 31%
    02:00 +18°C° 0 mm 4 mps 671 mmHg 32%
    03:00 +17°C° 0 mm 4 mps 671 mmHg 33%
    04:00 +15°C° 0 mm 4 mps 671 mmHg 34%
    05:00 +15°C° 0 mm 4 mps 671 mmHg 34%
    06:00 +15°C° 0 mm 4 mps 671 mmHg 35%
    07:00 +14°C° 0 mm 4 mps 671 mmHg 36%
    08:00 +17°C° 0 mm 5 mps 672 mmHg 32%
    09:00 +20°C° 0 mm 6 mps 672 mmHg 28%
    10:00 +23°C° 0 mm 6 mps 673 mmHg 24%
    11:00 +24°C° 0 mm 6 mps 672 mmHg 22%
    12:00 +27°C° 0 mm 5 mps 672 mmHg 20%
    13:00 +28°C° 0 mm 5 mps 671 mmHg 18%
    14:00 +28°C° 0 mm 4 mps 671 mmHg 17%
    15:00 +28°C° 0 mm 3 mps 670 mmHg 16%
    16:00 +28°C° 0 mm 2 mps 670 mmHg 15%
    17:00 +26°C° 0 mm 2 mps 670 mmHg 18%
    18:00 +23°C° 0 mm 2 mps 670 mmHg 20%
    19:00 +20°C° 0 mm 2 mps 670 mmHg 22%
    20:00 +20°C° 0 mm 2 mps 670 mmHg 23%
    21:00 +19°C° 0 mm 2 mps 670 mmHg 23%
    22:00 +19°C° 0 mm 2 mps 670 mmHg 24%
    23:00 +18°C° 0 mm 3 mps 669 mmHg 25%

    Tomorrow, 8 June, Monday

    Time Temperature Precipitation Wind Pressure Humidity
    00:00 +18°C° 0 mm 3 mps 669 mmHg 27%
    01:00 +17°C° 0 mm 3 mps 669 mmHg 28%
    02:00 +16°C° 0 mm 3 mps 669 mmHg 30%
    03:00 +16°C° 0 mm 3 mps 669 mmHg 32%
    04:00 +14°C° 0 mm 3 mps 669 mmHg 34%
    05:00 +14°C° 0 mm 3 mps 669 mmHg 37%
    06:00 +13°C° 0 mm 3 mps 669 mmHg 40%
    07:00 +13°C° 0 mm 3 mps 669 mmHg 42%
    08:00 +16°C° 0 mm 3 mps 670 mmHg 38%
    09:00 +19°C° 0 mm 4 mps 671 mmHg 34%
    10:00 +21°C° 0 mm 4 mps 671 mmHg 31%
    11:00 +23°C° 0 mm 4 mps 671 mmHg 28%
    12:00 +26°C° 0 mm 4 mps 670 mmHg 26%
    13:00 +28°C° 0 mm 4 mps 670 mmHg 23%
    14:00 +28°C° 0 mm 3 mps 669 mmHg 22%
    15:00 +28°C° 0 mm 3 mps 669 mmHg 21%
    16:00 +28°C° 0 mm 3 mps 669 mmHg 20%
    17:00 +27°C° 0 mm 3 mps 669 mmHg 23%
    18:00 +25°C° 0 mm 3 mps 668 mmHg 26%
    19:00 +22°C° 0 mm 3 mps 668 mmHg 29%
    20:00 +21°C° 0 mm 3 mps 668 mmHg 29%
    21:00 +21°C° 0 mm 3 mps 669 mmHg 30%
    22:00 +20°C° 0 mm 3 mps 669 mmHg 30%
    23:00 +19°C° 0 mm 3 mps 669 mmHg 32%

    Day after tomorrow, 9 June, Tuesday

    Time Temperature Precipitation Wind Pressure Humidity
    00:00 +18°C° 0 mm 2 mps 668 mmHg 34%
    01:00 +17°C° 0 mm 2 mps 668 mmHg 36%
    02:00 +17°C° 0 mm 2 mps 668 mmHg 38%
    03:00 +16°C° 0 mm 1 mps 668 mmHg 40%
    04:00 +15°C° 0 mm 1 mps 668 mmHg 42%
    05:00 +15°C° 0 mm 1 mps 668 mmHg 42%
    06:00 +15°C° 0 mm 1 mps 668 mmHg 42%
    07:00 +15°C° 0 mm 2 mps 669 mmHg 42%
    08:00 +18°C° 0 mm 2 mps 669 mmHg 37%
    09:00 +20°C° 0 mm 2 mps 670 mmHg 32%
    10:00 +23°C° 0 mm 2 mps 670 mmHg 27%
    11:00 +25°C° 0 mm 2 mps 670 mmHg 25%
    12:00 +27°C° 0 mm 2 mps 670 mmHg 23%
    13:00 +28°C° 0 mm 3 mps 669 mmHg 21%
    14:00 +29°C° 0 mm 2 mps 669 mmHg 20%
    15:00 +29°C° 0 mm 2 mps 669 mmHg 19%
    16:00 +30°C° 0 mm 2 mps 669 mmHg 18%
    17:00 +27°C° 0 mm 2 mps 668 mmHg 22%
    18:00 +25°C° 0 mm 2 mps 668 mmHg 25%
    19:00 +23°C° 0 mm 1 mps 668 mmHg 28%
    20:00 +21°C° 0 mm 2 mps 668 mmHg 29%
    21:00 +20°C° 0 mm 2 mps 669 mmHg 31%
    22:00 +19°C° 0 mm 3 mps 669 mmHg 32%
    23:00 +18°C° 0 mm 3 mps 669 mmHg 38%

    10 June, Wednesday

    Time Temperature Precipitation Wind Pressure Humidity
    00:00 +17°C° 0 mm 3 mps 668 mmHg 44%
    01:00 +15°C° 0 mm 4 mps 668 mmHg 49%
    02:00 +16°C° 0 mm 3 mps 668 mmHg 52%
    03:00 +14°C° 0 mm 3 mps 668 mmHg 55%
    04:00 +14°C° 0 mm 2 mps 668 mmHg 57%
    05:00 +14°C° 0 mm 2 mps 668 mmHg 57%
    06:00 +14°C° 0 mm 2 mps 668 mmHg 56%
    07:00 +14°C° 0 mm 2 mps 669 mmHg 56%
    08:00 +17°C° 0 mm 2 mps 669 mmHg 47%
    09:00 +20°C° 0 mm 2 mps 670 mmHg 39%
    10:00 +23°C° 0 mm 2 mps 671 mmHg 30%
    11:00 +25°C° 0 mm 2 mps 670 mmHg 27%
    12:00 +26°C° 0 mm 2 mps 670 mmHg 24%
    13:00 +28°C° 0 mm 1 mps 669 mmHg 20%
    14:00 +28°C° 0 mm 1 mps 669 mmHg 20%
    15:00 +28°C° 0 mm 1 mps 669 mmHg 20%
    16:00 +28°C° 0 mm 1 mps 668 mmHg 20%
    17:00 +27°C° 0 mm 2 mps 668 mmHg 22%
    18:00 +25°C° 0 mm 2 mps 668 mmHg 25%
    19:00 +22°C° 0 mm 3 mps 668 mmHg 28%
    20:00 +21°C° 0 mm 3 mps 668 mmHg 27%
    21:00 +20°C° 0 mm 4 mps 668 mmHg 26%
    22:00 +19°C° 0 mm 4 mps 668 mmHg 25%
    23:00 +18°C° 0 mm 4 mps 668 mmHg 27%

    11 June, Thursday

    Time Temperature Precipitation Wind Pressure Humidity
    00:00 +15°C° 0 mm 4 mps 668 mmHg 29%
    01:00 +14°C° 0 mm 4 mps 668 mmHg 31%
    02:00 +13°C° 0 mm 3 mps 667 mmHg 35%
    03:00 +13°C° 0 mm 3 mps 667 mmHg 38%
    04:00 +13°C° 0 mm 2 mps 667 mmHg 42%
    05:00 +13°C° 0 mm 2 mps 667 mmHg 43%
    06:00 +13°C° 0 mm 2 mps 668 mmHg 44%
    07:00 +13°C° 0 mm 2 mps 668 mmHg 45%
    08:00 +15°C° 0 mm 2 mps 669 mmHg 38%
    09:00 +19°C° 0 mm 1 mps 669 mmHg 31%
    10:00 +22°C° 0 mm 1 mps 670 mmHg 24%
    11:00 +24°C° 0 mm 1 mps 670 mmHg 22%
    12:00 +26°C° 0 mm 1 mps 669 mmHg 19%
    13:00 +26°C° 0 mm 0 mps 669 mmHg 17%
    14:00 +28°C° 0 mm 1 mps 669 mmHg 16%
    15:00 +28°C° 0 mm 1 mps 668 mmHg 16%
    16:00 +29°C° 0 mm 2 mps 668 mmHg 15%
    17:00 +26°C° 0 mm 2 mps 668 mmHg 18%
    18:00 +24°C° 0 mm 2 mps 668 mmHg 20%
    19:00 +20°C° 0 mm 2 mps 668 mmHg 23%
    20:00 +19°C° 0 mm 3 mps 668 mmHg 25%
    21:00 +17°C° 0 mm 4 mps 669 mmHg 27%
    22:00 +15°C° 0 mm 4 mps 669 mmHg 29%
    23:00 +14°C° 0 mm 4 mps 668 mmHg 32%

    12 June, Friday

    Time Temperature Precipitation Wind Pressure Humidity
    00:00 +13°C° 0 mm 4 mps 668 mmHg 36%
    01:00 +12°C° 0 mm 4 mps 668 mmHg 40%
    02:00 +11°C° 0 mm 3 mps 668 mmHg 41%
    03:00 +10°C° 0 mm 3 mps 668 mmHg 42%
    04:00 +10°C° 0 mm 2 mps 667 mmHg 44%
    05:00 +10°C° 0 mm 2 mps 667 mmHg 43%
    06:00 +10°C° 0 mm 2 mps 668 mmHg 42%
    07:00 +10°C° 0 mm 2 mps 668 mmHg 42%
    08:00 +14°C° 0 mm 2 mps 669 mmHg 35%
    09:00 +17°C° 0 mm 3 mps 669 mmHg 27%
    10:00 +20°C° 0 mm 3 mps 670 mmHg 20%
    11:00 +21°C° 0 mm 3 mps 670 mmHg 18%
    12:00 +24°C° 0 mm 3 mps 669 mmHg 16%
    13:00 +26°C° 0 mm 3 mps 669 mmHg 14%
    14:00 +26°C° 0 mm 2 mps 669 mmHg 14%
    15:00 +26°C° 0 mm 2 mps 668 mmHg 15%
    16:00 +27°C° 0 mm 2 mps 668 mmHg 15%
    17:00 +25°C° 0 mm 2 mps 668 mmHg 16%
    18:00 +23°C° 0 mm 2 mps 668 mmHg 18%
    19:00 +20°C° 0 mm 2 mps 668 mmHg 20%
    20:00 +20°C° 0 mm 3 mps 669 mmHg 21%
    21:00 +19°C° 0 mm 4 mps 669 mmHg 22%
    22:00 +19°C° 0 mm 4 mps 670 mmHg 23%
    23:00 +17°C° 0 mm 5 mps 669 mmHg 26%
    Show more